Location: Heidgraben
(53.7081°N, 9.6576°E)
Time: 00:11:42
(UTC+00:00)

Cosmos 2333 Rocket - Pass Details

Date: 30 October 2020
Orbit: 841 x 861 km, 70.8° (Epoch: 28 November)

Event Time Altitude Azimuth Distance (km) Brightness Sun altitude
Exits shadow 00:21:06 10° 21° (NNE) 2,480 5.2 -47.4°
Drops below altitude 10° 00:21:12 10° 22° (NNE) 2,506 5.2 -47.4°
Sets 00:24:18 0° 39° (NE) 3,419 6.1 -47.2°
